Location: Dead Woman Crossing
(43.5369°N, 106.3228°W)
Time: 02:56:33
(UTC+00:00)

COSMOS 2251 DEB - Pass Details

Date: 09 December 2022
Orbit: 765 x 800 km, 74.0° (Epoch: 25 January)

Event Time Altitude Azimuth Distance (km) Brightness Sun altitude
Rises 02:07:54 0° 316° (NW) 3,244 ? -28.0°
Reaches altitude 10° 02:13:06 10° 272° (W) 2,304 ? -28.9°
Maximum altitude 02:13:27 10° 269° (W) 2,299 ? -29.0°
Drops below altitude 10° 02:13:47 10° 265° (W) 2,303 ? -29.0°
Sets 02:18:59 0° 221° (SW) 3,220 ? -30.0°
